VK1ET-13 Weather Reports


Display with metric or nautical units.
time (UTC)temp
F
wind
direction
speed
MPH
gust
MPH
rain 1hr
in
rain 24hr
in
rain mn
in
humidity
%
barometer
mb
20260504050529 60 321 4.0 9.0 0.00 0.00 0.00 89 1013.8
20260504045538 60 325 2.0 5.0 0.00 0.00 0.00 89 1013.7
20260504044521 60 341 3.0 7.0 0.00 0.00 0.00 90 1013.8
20260504043530 59 5 2.0 6.0 0.00 0.00 0.00 93 1013.7
20260504042519 60 344 3.0 6.0 0.00 0.00 0.00 93 1013.8
20260504041528 60 300 3.0 9.0 0.00 0.00 0.00 92 1013.8
20260504040516 60 319 4.0 10.0 0.00 0.00 0.00 90 1013.7
20260504035524 61 327 5.0 11.0 0.00 0.00 0.00 91 1013.7
20260504034535 61 295 6.0 12.0 0.00 0.00 0.00 91 1013.7
20260504033522 61 298 4.0 8.0 0.00 0.00 0.00 92 1013.7
20260504032531 61 300 6.0 13.0 0.00 0.00 0.00 93 1013.8
20260504031520 62 295 4.0 8.0 0.00 0.00 0.00 95 1013.7
20260504030535 62 303 5.0 10.0 0.00 0.00 0.00 95 1013.7
20260504025517 62 302 6.0 10.0 0.00 0.00 0.00 95 1013.7
20260504024526 62 317 5.0 10.0 0.00 0.00 0.00 95 1013.7
20260504023535 62 328 4.0 9.0 0.00 0.00 0.00 95 1013.8
20260504022523 62 324 4.0 9.0 0.00 0.00 0.00 94 1014.1
20260504021533 63 325 4.0 8.0 0.00 0.00 0.00 95 1014.2
20260504020522 62 315 4.0 10.0 0.00 0.00 0.00 96 1014.4
20260504015530 62 300 4.0 9.0 0.00 0.00 0.00 96 1014.6
20260504014519 62 326 4.0 12.0 0.00 0.00 0.00 96 1014.7
20260504013527 62 346 3.0 6.0 0.00 0.00 0.00 95 1014.7
20260504012516 62 324 5.0 11.0 0.00 0.00 0.00 96 1014.9
20260504011526 62 318 5.0 11.0 0.00 0.00 0.00 96 1015.1
20260504010536 62 321 5.0 10.0 0.00 0.00 0.00 96 1015.1
20260504005530 62 337 7.0 17.0 0.00 0.00 0.00 96 1015.0
20260504004533 62 328 5.0 11.0 0.00 0.00 0.00 96 1015.0
20260504003521 62 342 6.0 13.0 0.00 0.00 0.00 96 1015.2
20260504002531 62 339 7.0 14.0 0.00 0.00 0.00 96 1015.3
20260504001519 62 335 7.0 13.0 0.00 0.00 0.00 96 1015.2
20260504000529 62 348 8.0 16.0 0.00 0.00 0.00 96 1015.1
20260503235537 62 347 7.0 17.0 0.00 0.00 0.00 97 1015.1
20260503234525 62 347 9.0 18.0 0.00 0.00 0.00 98 1014.9
20260503233535 62 336 8.0 21.0 0.00 0.00 0.00 98 1015.2
20260503232531 62 329 7.0 13.0 0.00 0.00 0.00 98 1015.1
20260503231534 62 354 6.0 14.0 0.00 0.00 0.00 98 1015.5
20260503230522 62 325 5.0 13.0 0.00 0.00 0.00 98 1015.2
20260503225531 62 360 6.0 14.0 0.00 0.00 0.00 98 1015.1
20260503224521 62 348 5.0 10.0 0.00 0.00 0.00 98 1015.2
20260503223529 62 355 5.0 11.0 0.00 0.00 0.00 98 1015.1
20260503222517 62 3 5.0 13.0 0.00 0.00 0.00 98 1014.9
20260503221533 62 3 5.0 11.0 0.00 0.00 0.00 98 1014.9
20260503220534 62 4 4.0 9.0 0.00 0.00 0.00 98 1015.0
20260503215523 62 9 4.0 8.0 0.00 0.00 0.00 98 1015.1
20260503214533 62 0 3.0 7.0 0.00 0.00 0.00 98 1015.0
20260503213528 62 353 3.0 6.0 0.00 0.00 0.00 98 1014.9
20260503212537 62 9 3.0 10.0 0.00 0.00 0.00 98 1014.7
20260503211525 62 6 4.0 8.0 0.00 0.00 0.00 98 1014.6
20260503210527 62 9 3.0 8.0 0.00 0.00 0.00 98 1014.6
20260503205537 62 8 3.0 8.0 0.00 0.00 0.00 98 1014.6
20260503204525 62 3 3.0 6.0 0.00 0.00 0.00 98 1014.6
20260503203535 62 0 3.0 6.0 0.00 0.00 0.00 98 1014.4
20260503202524 62 1 4.0 9.0 0.00 0.00 0.00 98 1014.3
20260503201532 62 19 3.0 6.0 0.00 0.00 0.00 98 1014.3
20260503200521 62 2 3.0 6.0 0.00 0.00 0.00 98 1014.4
20260503195537 62 15 2.0 5.0 0.00 0.00 0.00 98 1014.4
20260503194533 61 1 2.0 5.0 0.00 0.00 0.00 98 1014.4
20260503193529 61 30 1.0 3.0 0.00 0.00 0.00 98 1014.4
20260503192518 61 4 2.0 5.0 0.00 0.00 0.00 98 1014.4
20260503191527 61 330 2.0 4.0 0.00 0.00 0.00 98 1014.6
20260503190537 61 354 1.0 4.0 0.00 0.00 0.00 98 1014.6
20260503185539 61 1 2.0 5.0 0.00 0.00 0.00 98 1014.8
20260503184534 62 9 2.0 4.0 0.00 0.00 0.00 98 1014.8
20260503183529 62 350 1.0 3.0 0.00 0.00 0.00 98 1014.8
20260503182537 62 333 1.0 6.0 0.00 0.00 0.00 98 1015.1
20260503181519 62 351 2.0 6.0 0.00 0.00 0.00 98 1015.0
20260503180529 62 318 2.0 5.0 0.00 0.00 0.00 98 1015.1
20260503175517 62 343 2.0 6.0 0.00 0.00 0.00 98 1015.2
20260503174526 62 342 3.0 7.0 0.00 0.00 0.00 98 1015.2
20260503173535 62 0 2.0 6.0 0.00 0.00 0.00 98 1015.2
20260503172523 62 17 3.0 6.0 0.00 0.00 0.00 98 1015.1
20260503171532 62 12 3.0 6.0 0.00 0.00 0.00 98 1015.1
20260503170521 62 360 4.0 7.0 0.00 0.00 0.00 98 1015.5
20260503150527 62 346 4.0 10.0 0.00 0.00 0.00 97 1016.7
20260503130535 63 41 1.0 4.0 0.00 0.00 0.00 96 1017.3
20260503110527 63 98 2.0 4.0 0.00 0.00 0.00 95 1017.4
20260503081532 65 335 5.0 11.0 0.00 0.00 0.00 90 1018.0
20260503080521 65 293 4.0 8.0 0.00 0.00 0.00 89 1017.8
20260503072516 65 358 1.0 2.0 0.00 0.00 0.00 90 1017.2
20260503071532 66 18 2.0 3.0 0.00 0.00 0.00 90 1017.3
20260503070536 66 324 4.0 7.0 0.00 0.00 0.00 89 1017.4